Regional Weather Roundup
Issued by NWS Portland, ME

Current Version | Previous Version | Text Only | Print | Product List | Glossary Off
Versions: 1 2 3 4 5 6 7 8 9 10 11 12 13 14 15 16 17 18 19 20 21 22 23 24 25 26 27 28 29 30 31 32 33 34 35 36 37 38 39 40 41 42 43 44 45 46 47 48 49 50
000 ASUS41 KGYX 271510 RWRGYX WEATHER ROUNDUP FOR MAINE AND NEW HAMPSHIRE NATIONAL WEATHER SERVICE GRAY ME 1100 AM EDT MON MAR 27 2017 MEZ002-005-006-010-012-015-018-020-021-024-026-027-029-271600- MAINE CITY SKY/WX TMP DP RH WIND PRES REMARKS PORTLAND RAIN 35 34 96 E14 30.23F FOG SANFORD RAIN 36 35 96 E8 30.20F FOG BAR HARBOR LGT RAIN 33 21 61 E9G18 30.32F WISCASSET LGT RAIN 34 32 92 E8 30.26F FOG ROCKLAND LGT RAIN 34 29 82 E13 30.28F FRYEBURG LGT RAIN 33 32 96 N3 30.23S LEWISTONAUBURN MIX PCPN 33 31 92 E9 30.22F FOG AUGUSTA FRZ RAIN 31 28 89 E7 30.26F FOG WATERVILLE MIX PCPN 32 30 92 VRB3 30.24F FOG BANGOR FRZ RAIN 31 29 92 SE9 30.31F FOG GREENVILLE N/A 25 24 96 VRB7G16 30.16F MILLINOCKET LGT SNOW 29 27 92 SE5 30.30F FOG HOULTON CLOUDY 25 15 66 E8 30.31F PRESQUE ISLE FLURRIES 23 16 74 SE8 30.32F FRENCHVILLE LGT SNOW 22 15 75 SE12 30.27F VSB 1 WCI 10 CARIBOU CLOUDY 23 18 81 SE9 30.31F $$ NHZ002-005-008-009-011-012-014-271600- NEW HAMPSHIRE CITY SKY/WX TMP DP RH WIND PRES REMARKS PORTSMOUTH LGT RAIN 38 37 96 NE7 30.18F VSB 1 ROCHESTER HVY RAIN 36 34 92 E8 30.17F FOG NASHUA RAIN 36 36 100 NW5 30.16F MANCHESTER RAIN 36 34 92 NE6 30.15F VSB 1 CONCORD RAIN 35 33 92 N5 30.18S FOG LACONIA MIX PCPN 33 32 96 NE5 30.20F FOG PLYMOUTH MIX PCPN 33 33 96 CALM 30.19F BERLIN CLOUDY 34 29 82 S9 30.12F WHITEFIELD CLOUDY 38 31 76 VRB7 30.08F JAFFREY LGT RAIN 33 32 96 CALM 30.12F FOG KEENE LGT SNOW 36 34 93 NW5 30.14F FOG LEBANON LGT RAIN 35 33 92 CALM 30.13F FOG MT WASHINGTON FRZ RAIN 23 23 100 S37G44 N/A VSB 1/16WCI 4 $$ VTZ005-007-008-271600- VERMONT CITY SKY/WX TMP DP RH WIND PRES REMARKS ST JOHNSBURY N/A 34 33 96 MISG 30.09F MONTPELIER LGT RAIN 34 32 92 S14 30.11F FOG BURLINGTON LGT RAIN 37 35 92 S10 30.04F FOG $$ MAZ007-012-024-CTZ003-RIZ002-NYZ038-NYZ072-271600- SOUTHERN NEW ENGLAND AND NY CITY SKY/WX TMP DP RH WIND PRES REMARKS BOSTON FOG 39 39 100 E7 30.14F VSB 1/2 WORCESTER RAIN 33 32 96 N6 30.10F VSB 1/4 NANTUCKET CLOUDY 45 41 86 SE16 30.15F PROVIDENCE DRZL/FOG 43 41 93 S7 30.13F VSB 3/4 HARTFORD RAIN 35 34 96 N8 30.13S FOG ALBANY CLOUDY 38 34 85 S7 30.08F NEW YORK CITY LGT RAIN 41 39 93 NE9 30.09F FOG $$ ANZ081-ANZ082-ANZ150-NHZ014-MEZ023>029-271600- COASTAL MARINE OBSERVATIONS STATION/POSITION TIME TEMP WIND PRES WAVE AIR SEA DIR/SP/G HT/PER (UTC) (F) (DEG/KT/KT) (MB) (FT/S) MOUNT DESERT ROC 1500 35 1025.7F MATINICUS ROCK 1400 36 110/ 24/ 26 1024.7F ISLE OF SHOALS 1400 39 100/ 13/ 15 1022.3F JEFFREYS LEDGE 1436 41 N/A 6/ 5 CASHES LEDGE BUO 1450 38 39 1022.9F 5/ 5 GEORGES BANK BUO 1450 45 41 1024.8F 3/ 5 $$ .............KEY.............. WCI - WIND CHILL TC - TEMPERATURE IN CELSIUS VSB - VISIBILITY IN MILES HX - HEAT INDEX FAIR- INDICATES FEW OR NO CLOUDS BELOW 12,000 FT, WITH NO SIGNIFICANT WEATHER AND/OR OBSTRUCTIONS TO VISIBILITY.

USA.gov is the U.S. government's official web portal to all federal, state and local government web resources and services.